Regional Weather Roundup
Issued by NWS Burlington, VT

Home | Current Version | Previous Version | Text Only | Print | Product List | Glossary On
Versions: 1 2 3 4 5 6 7 8 9 10 11 12 13 14 15 16 17 18 19 20 21 22 23 24 25 26 27 28 29 30 31 32 33 34 35 36 37 38 39 40 41 42 43 44 45 46 47 48 49 50
000
ASUS41 KBTV 281430
RWRBTV
VERMONT REGIONAL WEATHER ROUNDUP
NATIONAL WEATHER SERVICE BURLINGTON VT
1000 AM EDT THU JUL 28 2016

NOTE: "FAIR" INDICATES FEW OR NO CLOUDS BELOW 12,000 FEET WITH NO
SIGNIFICANT WEATHER AND/OR OBSTRUCTIONS TO VISIBILITY.

* THESE REPORTS ARE NOT UNDER NWS QUALITY CONTROL AND/OR DO NOT
  REPORT WEATHER SUCH AS PRECIPITATION AND FOG.

VTZ001>019-281500-
_____VERMONT_____


CITY           SKY/WX    TMP DP  RH WIND       PRES   REMARKS
BURLINGTON     PTSUNNY   77  63  61 SW6       29.90S
MONTPELIER     FAIR      75  65  70 NE3       29.96F
MORRISVILLE    FAIR      73  64  73 CALM      29.93F
ST. JOHNSBURY*   N/A     74  63  68 MISG      29.90F
LYNDONVILLE*   FAIR      73  65  74 CALM      29.95S
MIDDLEBURY*    FAIR      80  63  55 S9        29.90F
RUTLAND*       FAIR      78  63  59 VRB5      29.93F
SPRINGFIELD    FAIR      73  61  65 CALM      29.93F
HIGHGATE*      FAIR      77  66  69 W3        29.89F
NEWPORT*       FAIR      73  65  76 CALM      29.93S
BENNINGTON     FAIR      79  64  60 CALM      29.94F
MT. MANSFIELD*   N/A     63 N/A N/A NW14        N/A

_____LAKE CHAMPLAIN_____


CITY           SKY/WX    TMP DP  RH WIND       PRES   REMARKS
BURTON ISLAND*   N/A     75  66  73 S2          N/A
COLCHESTER RF*   N/A     73  66  78 S7          N/A
DIAMOND ISL*     N/A     75  66  73 SW3         N/A

$$

NYZ007-026>031-035-052-083-087-281500-
_____NORTHERN NEW YORK_____


CITY           SKY/WX    TMP DP  RH WIND       PRES   REMARKS
PLATTSBURGH    MOSUNNY   74  67  78 E3        29.89S
SARANAC LAKE   MOSUNNY   71  63  75 CALM      29.95S
MASSENA        MOSUNNY   74  66  76 E3        29.91S
OGDENSBURG*    SUNNY     81  66  61 CALM      29.90F
POTSDAM*       MOSUNNY   77  73  88 SW8       29.91F
WATERTOWN      MOSUNNY   76  68  76 SW8       29.91S
FT DRUM        CLOUDY    77  68  73 SW7       29.92S
ALBANY         CLOUDY    80  64  58 SW3       29.93S
GLENS FALLS    PTSUNNY   76  65  68 SE5       29.91F

$$
NHZ002-005-011-281500-
_____NEW HAMPSHIRE_____


CITY           SKY/WX    TMP DP  RH WIND       PRES   REMARKS
LEBANON        PTSUNNY   78  65  63 CALM      29.91F
KEENE          SUNNY     80  61  52 SW5       29.93F
MT WASHINGTON  FOG       55  55 100 W24         N/A  VSB 1/16
PLYMOUTH       FAIR      78  65  63 CALM      29.90F
WHITEFIELD     CLOUDY    77  63  61 CALM      29.93S

$$

_____REGIONAL QUEBEC LOCATIONS_____


CITY           SKY/WX    TMP DP  RH WIND       PRES   REMARKS
MONTREAL       PTSUNNY   75  61  60 NW10      29.89F
QUEBEC CITY    PTSUNNY   72  63  73 VRB2      29.88S
SHERBROOKE     SUNNY     72  66  83 W3        29.91S

_____REGIONAL ONTARIO LOCATIONS_____


CITY           SKY/WX    TMP DP  RH WIND       PRES   REMARKS
OTTAWA         CLOUDY    72  59  64 N8        29.93R

______KEY______
VSB  - VISIBILITY IN MILES
WCI  - WIND CHILL INDEX
HX   - HEAT INDEX
$$
NNNN




USA.gov is the U.S. government's official web portal to all federal, state and local government web resources and services.